Terminal Aerodrome Forecast
Issued by NWS

Home | Current Version | Previous Version | Text Only | Print | Product List | Glossary On
Versions: 1 2 3 4 5 6 7 8 9 10 11 12 13 14 15 16 17 18 19 20 21 22 23 24 25 26 27 28 29 30 31 32 33 34 35 36 37 38 39 40 41 42 43 44 45 46 47 48 49 50
000
FTUS45 KSLC 281913
TAFEVW
TAFEVW
TAF AMD
KEVW 281913Z 2819/2918 27013G19KT P6SM -SHRA VCTS SCT030CB BKN060
      TEMPO 2819/2820 26025G35KT
     FM290300 30009KT P6SM SCT060 BKN090
     FM290600 16005KT P6SM SCT090=

USA.gov is the U.S. government's official web portal to all federal, state and local government web resources and services.